Tracking 26257 objects as of 4-Oct-2022
HD Live streaming from Space Station
objects crossing your sky now

SHIJIAN-16 (SJ-16)

Track SHIJIAN-16 (SJ-16) now!
10-day predictions
SHIJIAN-16 (SJ-16) is classified as:


NORAD ID: 39358
Int'l Code: 2013-057A
Perigee: 602.9 km
Apogee: 630.3 km
Inclination: 75.0 °
Period: 96.9 minutes
Semi major axis: 6987 km
RCS: Unknown
Launch date: October 25, 2013
Source: People's Republic of China (PRC)
Launch site: Jiuquan Satellite Launch Center, China (JSC)

SHIJIAN-16 will be used mainly for conducting space environment exploration and technological experiments.
aabbcc
Your satellite tracking list
Your tracking list is empty




NASA's NSSDC Master Catalog

Two Line Element Set (TLE):
1 39358U 13057A   22276.81483467  .00001419  00000-0  16375-3 0  9994
2 39358  74.9770  25.0176 0019576 259.6625 100.2366 14.86315182485091
Source of the keplerian elements: AFSPC